Location: Stoke Bliss
(52.2667°N, 2.5167°W)
Time: 14:46:13
(UTC+00:00)

SPOT 1/Viking Rocket - Pass Details

Date: 03 March 2021
Orbit: 778 x 793 km, 98.4° (Epoch: 13 April)

Event Time Altitude Azimuth Distance (km) Brightness Sun altitude
Exits shadow 20:29:54 44° 48° (NE) 1,078 4.0 -24.3°
Drops below altitude 10° 20:34:18 10° 355° (N) 2,354 6.3 -24.9°
Sets 20:36:42 0° 349° (N) 3,289 7.2 -25.3°
